When you browse on this site, cookies collect data to enhance your experience and personalize the content and advertising you see.
Visit our Privacy Policy to learn more. By continuing to use the site, you agree to this use of cookies and data.
  • In France
  • List of Countries
  • For 7 days
  • Water Temperature
  • Satellite Maps
  • Weather Map
  • Weather Widgets
  • user-avatar
    Login

    Hourly Weather Rawson

    Today, 23 January, Wednesday

    Time Temperature Precipitation Wind Pressure Humidity
    00:00 +17°C° 0 mm 6 mps 759 mmHg 45%
    01:00 +19°C° 0 mm 6 mps 759 mmHg 49%
    02:00 +19°C° 0 mm 6 mps 760 mmHg 53%
    03:00 +19°C° 0 mm 5 mps 760 mmHg 49%
    04:00 +17°C° 0 mm 5 mps 760 mmHg 45%
    05:00 +18°C° 0 mm 4 mps 760 mmHg 41%
    06:00 +19°C° 0 mm 4 mps 760 mmHg 35%
    07:00 +20°C° 0 mm 4 mps 761 mmHg 30%
    08:00 +21°C° 0 mm 4 mps 761 mmHg 25%
    09:00 +24°C° 0 mm 3 mps 761 mmHg 22%
    10:00 +25°C° 0 mm 3 mps 761 mmHg 20%
    11:00 +26°C° 0 mm 3 mps 761 mmHg 18%
    12:00 +28°C° 0 mm 4 mps 760 mmHg 16%
    13:00 +29°C° 0 mm 4 mps 759 mmHg 15%
    14:00 +32°C° 0 mm 5 mps 759 mmHg 13%
    15:00 +32°C° 0 mm 6 mps 758 mmHg 13%
    16:00 +33°C° 0 mm 7 mps 757 mmHg 13%
    17:00 +34°C° 0 mm 8 mps 756 mmHg 13%
    18:00 +32°C° 0 mm 9 mps 756 mmHg 19%
    19:00 +29°C° 0 mm 11 mps 755 mmHg 24%
    20:00 +27°C° 0 mm 12 mps 755 mmHg 30%
    21:00 +26°C° 0 mm 12 mps 755 mmHg 32%
    22:00 +26°C° 0 mm 13 mps 755 mmHg 34%
    23:00 +24°C° 0 mm 13 mps 755 mmHg 37%

    Tomorrow, 24 January, Thursday

    Time Temperature Precipitation Wind Pressure Humidity
    00:00 +24°C° 0 mm 13 mps 755 mmHg 38%
    01:00 +24°C° 0 mm 13 mps 754 mmHg 40%
    02:00 +23°C° 0 mm 13 mps 754 mmHg 41%
    03:00 +23°C° 0 mm 13 mps 754 mmHg 40%
    04:00 +23°C° 0 mm 12 mps 753 mmHg 40%
    05:00 +23°C° 0 mm 11 mps 753 mmHg 39%
    06:00 +27°C° 0 mm 10 mps 753 mmHg 31%
    07:00 +29°C° 0 mm 9 mps 753 mmHg 24%
    08:00 +33°C° 0 mm 8 mps 753 mmHg 17%
    09:00 +34°C° 0 mm 7 mps 753 mmHg 15%
    10:00 +35°C° 0 mm 6 mps 753 mmHg 13%
    11:00 +37°C° 0 mm 5 mps 753 mmHg 11%
    12:00 +35°C° 0.1 mm 7 mps 752 mmHg 15%
    13:00 +32°C° 0.1 mm 8 mps 752 mmHg 20%
    14:00 +29°C° 0.1 mm 10 mps 751 mmHg 25%
    15:00 +29°C° 0.5 mm 9 mps 751 mmHg 30%
    16:00 +29°C° 0.5 mm 7 mps 750 mmHg 36%
    17:00 +29°C° 0.5 mm 6 mps 749 mmHg 42%
    18:00 +29°C° 0.3 mm 6 mps 749 mmHg 46%
    19:00 +29°C° 0.3 mm 5 mps 749 mmHg 51%
    20:00 +28°C° 0.3 mm 5 mps 748 mmHg 56%
    21:00 +27°C° 0 mm 5 mps 749 mmHg 59%
    22:00 +26°C° 0 mm 4 mps 749 mmHg 61%
    23:00 +25°C° 0 mm 4 mps 749 mmHg 64%

    Day after tomorrow, 25 January, Friday

    Time Temperature Precipitation Wind Pressure Humidity
    00:00 +26°C° 0 mm 6 mps 749 mmHg 53%
    01:00 +26°C° 0 mm 7 mps 750 mmHg 42%
    02:00 +26°C° 0 mm 9 mps 750 mmHg 31%
    03:00 +24°C° 0 mm 8 mps 750 mmHg 34%
    04:00 +23°C° 0 mm 6 mps 750 mmHg 36%
    05:00 +22°C° 0 mm 5 mps 750 mmHg 38%
    06:00 +23°C° 0 mm 5 mps 750 mmHg 36%
    07:00 +25°C° 0 mm 5 mps 751 mmHg 33%
    08:00 +26°C° 0 mm 5 mps 751 mmHg 31%
    09:00 +27°C° 0 mm 5 mps 751 mmHg 30%
    10:00 +27°C° 0 mm 4 mps 751 mmHg 28%
    11:00 +28°C° 0 mm 3 mps 751 mmHg 27%
    12:00 +26°C° 0.1 mm 6 mps 752 mmHg 36%
    13:00 +23°C° 0.1 mm 9 mps 752 mmHg 44%
    14:00 +19°C° 0.1 mm 12 mps 752 mmHg 52%
    15:00 +21°C° 0 mm 9 mps 753 mmHg 45%
    16:00 +22°C° 0 mm 7 mps 753 mmHg 38%
    17:00 +25°C° 0 mm 5 mps 754 mmHg 31%
    18:00 +22°C° 0 mm 8 mps 755 mmHg 27%
    19:00 +21°C° 0 mm 11 mps 756 mmHg 23%
    20:00 +19°C° 0 mm 14 mps 758 mmHg 20%
    21:00 +19°C° 0 mm 12 mps 759 mmHg 20%
    22:00 +18°C° 0 mm 9 mps 760 mmHg 21%
    23:00 +19°C° 0 mm 6 mps 761 mmHg 22%

    26 January, Saturday

    Time Temperature Precipitation Wind Pressure Humidity
    00:00 +17°C° 0 mm 6 mps 761 mmHg 23%
    01:00 +17°C° 0 mm 6 mps 761 mmHg 23%
    02:00 +16°C° 0 mm 6 mps 762 mmHg 24%
    03:00 +16°C° 0 mm 6 mps 762 mmHg 27%
    04:00 +15°C° 0 mm 6 mps 763 mmHg 29%
    05:00 +14°C° 0 mm 6 mps 763 mmHg 31%
    06:00 +15°C° 0 mm 6 mps 763 mmHg 30%
    07:00 +16°C° 0 mm 5 mps 764 mmHg 29%
    08:00 +17°C° 0 mm 4 mps 764 mmHg 28%
    09:00 +18°C° 0 mm 4 mps 764 mmHg 25%
    10:00 +19°C° 0 mm 3 mps 764 mmHg 22%
    11:00 +21°C° 0 mm 3 mps 764 mmHg 20%
    12:00 +22°C° 0 mm 4 mps 763 mmHg 18%
    13:00 +23°C° 0 mm 4 mps 762 mmHg 15%
    14:00 +25°C° 0 mm 4 mps 762 mmHg 13%
    15:00 +26°C° 0 mm 5 mps 761 mmHg 14%
    16:00 +27°C° 0 mm 6 mps 760 mmHg 14%
    17:00 +28°C° 0 mm 7 mps 759 mmHg 14%
    18:00 +26°C° 0 mm 9 mps 759 mmHg 19%
    19:00 +23°C° 0 mm 10 mps 758 mmHg 24%
    20:00 +21°C° 0 mm 11 mps 758 mmHg 30%
    21:00 +21°C° 0 mm 11 mps 758 mmHg 35%
    22:00 +21°C° 0 mm 11 mps 758 mmHg 40%
    23:00 +21°C° 0 mm 11 mps 758 mmHg 46%

    27 January, Sunday

    Time Temperature Precipitation Wind Pressure Humidity
    00:00 +21°C° 0 mm 12 mps 757 mmHg 44%
    01:00 +21°C° 0 mm 12 mps 757 mmHg 43%
    02:00 +22°C° 0 mm 12 mps 757 mmHg 42%
    03:00 +21°C° 0 mm 10 mps 757 mmHg 39%
    04:00 +21°C° 0 mm 7 mps 757 mmHg 35%
    05:00 +21°C° 0 mm 5 mps 756 mmHg 31%
    06:00 +21°C° 0 mm 5 mps 757 mmHg 27%
    07:00 +22°C° 0 mm 6 mps 757 mmHg 23%
    08:00 +23°C° 0 mm 6 mps 757 mmHg 19%
    09:00 +24°C° 0 mm 6 mps 757 mmHg 17%
    10:00 +26°C° 0 mm 5 mps 757 mmHg 16%
    11:00 +27°C° 0 mm 5 mps 756 mmHg 15%
    12:00 +29°C° 0 mm 5 mps 756 mmHg 14%
    13:00 +30°C° 0 mm 5 mps 755 mmHg 14%
    14:00 +32°C° 0 mm 5 mps 754 mmHg 13%
    15:00 +32°C° 0 mm 5 mps 754 mmHg 13%
    16:00 +32°C° 0 mm 5 mps 753 mmHg 12%
    17:00 +33°C° 0 mm 5 mps 753 mmHg 12%
    18:00 +32°C° 0 mm 5 mps 753 mmHg 14%
    19:00 +30°C° 0 mm 4 mps 753 mmHg 16%
    20:00 +29°C° 0 mm 3 mps 753 mmHg 18%
    21:00 +27°C° 0 mm 3 mps 754 mmHg 21%
    22:00 +26°C° 0 mm 4 mps 754 mmHg 25%
    23:00 +25°C° 0 mm 4 mps 755 mmHg 28%

    28 January, Monday

    Time Temperature Precipitation Wind Pressure Humidity
    00:00 +25°C° 0 mm 4 mps 755 mmHg 29%
    01:00 +23°C° 0 mm 5 mps 755 mmHg 31%
    02:00 +22°C° 0 mm 5 mps 754 mmHg 32%
    03:00 +22°C° 0 mm 5 mps 754 mmHg 33%
    04:00 +22°C° 0 mm 6 mps 754 mmHg 33%
    05:00 +22°C° 0 mm 6 mps 754 mmHg 34%
    06:00 +23°C° 0 mm 7 mps 754 mmHg 33%
    07:00 +24°C° 0 mm 9 mps 754 mmHg 32%
    08:00 +26°C° 0 mm 10 mps 754 mmHg 30%
    09:00 +27°C° 0 mm 9 mps 754 mmHg 28%
    10:00 +29°C° 0 mm 9 mps 753 mmHg 27%
    11:00 +31°C° 0 mm 9 mps 753 mmHg 25%
    12:00 +32°C° 0 mm 8 mps 752 mmHg 23%
    13:00 +34°C° 0 mm 8 mps 751 mmHg 21%
    14:00 +35°C° 0 mm 8 mps 751 mmHg 19%
    15:00 +36°C° 0 mm 7 mps 750 mmHg 18%
    16:00 +36°C° 0 mm 7 mps 749 mmHg 17%
    17:00 +38°C° 0 mm 6 mps 748 mmHg 16%
    18:00 +35°C° 0 mm 7 mps 748 mmHg 18%
    19:00 +34°C° 0 mm 8 mps 747 mmHg 20%
    20:00 +32°C° 0 mm 9 mps 747 mmHg 22%
    21:00 +31°C° 0 mm 8 mps 748 mmHg 23%
    22:00 +30°C° 0 mm 6 mps 748 mmHg 25%
    23:00 +30°C° 0 mm 4 mps 748 mmHg 27%
    Show more